Regional Weather Roundup
Issued by NWS

Home | Current Version | Previous Version | Graphics & Text | Print | Product List | Glossary On
Versions: 1 2 3 4 5 6 7 8 9 10 11 12 13 14 15 16 17 18 19 20 21 22 23 24 25 26 27
000
ASUS45 KSLC 251910
RWRUT

UTAH REGIONAL WEATHER ROUNDUP
NATIONAL WEATHER SERVICE SALT LAKE CITY UT
100 PM MDT TUE JUL 25 2017

UTZ001>011-023>025-252000-

NORTHERN UTAH

CITY           SKY/WX    TMP DP  RH WIND       PRES   REMARKS
BRIGHAM CITY   CLOUDY    77  55  45 N3        30.13R
DUGWAY         PTSUNNY   78  55  43 S6        30.11F
HILL AFB       PTSUNNY   78  55  44 NE5       30.14F
LOGAN          CLOUDY    77  57  50 E3        30.13F
OGDEN          CLOUDY    79  54  41 S5        30.11F
SALT LAKE CITY CLOUDY    79  58  48 S6        30.10F
TOOELE VALLEY  CLOUDY    81  55  41 N5        30.11F
WENDOVER       MOSUNNY   82  54  37 E10       30.10F
HEBER CITY     CLOUDY    72  54  53 CALM      30.18F
WEST JORDAN    CLOUDY    75  66  75 CALM      30.14F

$$

UTZ011>015-024>027-252000-

CENTRAL/NORTHEAST UTAH

CITY           SKY/WX    TMP DP  RH WIND       PRES   REMARKS
PROVO AIRPORT  PTSUNNY   75  63  64 VRB6      30.15S
MOAB/CANYONLAN LGT RAIN  70  65  84 NE6       30.14F
DELTA          CLOUDY    75  54  46 CALM      30.15F
PRICE          CLOUDY    68  62  81 E6        30.23S
ROOSEVELT      CLOUDY    70  61  73 E6        30.22S
VERNAL         CLOUDY    69  62  78 W3        30.20F

$$

UTZ013>016-019>022-027-252000-

SOUTHERN UTAH

CITY           SKY/WX    TMP DP  RH WIND       PRES   REMARKS
BRYCE CANYON   LGT RAIN  63  58  83 NW5       30.32F
CEDAR CITY     CLOUDY    65  61  87 CALM      30.22R
MILFORD        CLOUDY    71  60  68 S12       30.17F
ST GEORGE      CLOUDY    71  67  87 CALM      30.11S
HANKSVILLE     CLOUDY    70  64  83 W3        30.17S
BLANDING       CLOUDY    66  62  85 W8G18     30.31S VSB 1/2

$$

REGIONAL REPORTS     COLORADO/ARIZONA

CITY           SKY/WX    TMP DP  RH WIND       PRES   REMARKS
CRAIG, CO      CLOUDY    76  55  48 W8        30.24F
GRAND JUNCTION PTSUNNY   77  60  55 VRB3      30.15F
RIFLE, CO      CLOUDY    73  58  59 SE3       30.21F
MONTROSE, CO   MOSUNNY   75  59  57 CALM      30.21F
CORTEZ, CO     CLOUDY    77  58  51 SW8       30.24S
COLORADO CITY  LGT RAIN  70  64  83 NW5       30.22R
PAGE, AZ       PTSUNNY   81  62  52 VRB3      30.09F
GRAND CANYON   CLOUDY    67  60  78 SW18G25   30.30F
KINGMAN, AZ    LGT RAIN  66  66 100 N15       30.17R FOG
FLAGSTAFF, AZ  MOSUNNY   69  58  67 SW20      30.35F

$$

REGIONAL REPORTS    NEVADA/IDAHO/WYOMING

CITY           SKY/WX    TMP DP  RH WIND       PRES   REMARKS
LAS VEGAS, NV  CLOUDY    79  66  64 E7        30.06R
ELY, NY        CLOUDY    76  49  38 W5        30.21F
ELKO, NV       MOSUNNY   84  45  25 VRB3      30.13F
POCATELLO, ID  CLOUDY    81  53  37 SW8       30.12S
BURLEY, ID     PTSUNNY   81  56  42 S12       30.07F
FORT BRIDGER,  CLOUDY    71  50  48 W7        30.30S
EVANSTON, WY   CLOUDY    65  55  70 MISG      30.29F
ROCK SPRINGS,  LGT RAIN  65  55  70 S5        30.26S
KEMMERER, WY     N/A     68  46  45 W10       30.28F

$$




USA.gov is the U.S. government's official web portal to all federal, state and local government web resources and services.